Cosmos 1939 Rocket - Orbit

View from above orbital plane
View from above orbital plane
View from above satellite
View from above satellite

Ground track
Ground track

The orbit data is extracted from the following two-line orbital elements,

1 19046U 88032B   13142.15669966  .00001823  00000-0  15730-3 0  5382
2 19046 097.7046 197.6226 0034527 334.4429 025.5085 14.98095461349635
Epoch (UTC): 22 May 2013 03:45:38
Eccentricity: 0.0034527
inclination: 97.7046°
perigee height: 549 km
apogee height: 597 km
right ascension of ascending node: 197.6226°
argument of perigee: 334.4429°
revolutions per day: 14.98095461
mean anomaly at epoch: 25.5085°
orbit number at epoch: 34963

The dashed part of the orbit path shows where the satellite is in the earth's shadow,  

Developed and maintained by Chris Peat, Heavens-Above GmbH. Please read the updated FAQ before sending e-mail. Imprint. DLR